TimeCDT,TemperatureF,Dew PointF,Humidity,Sea Level PressureIn,VisibilityMPH,Wind Direction,Wind SpeedMPH,Gust SpeedMPH,PrecipitationIn,Events,Conditions,WindDirDegrees,DateUTC
12:15 AM,81.7,74.8,80,29.82,10.0,SE,3.5,-,N/A,,Clear,140,2013-06-27 05:15:00
12:35 AM,81.5,75.2,81,29.81,10.0,SSW,3.5,-,N/A,,Clear,200,2013-06-27 05:35:00
12:55 AM,81.3,74.8,81,29.82,10.0,NE,8.1,-,N/A,Thunderstorm,Clear,50,2013-06-27 05:55:00
1:15 AM,79.9,74.8,85,29.83,7.0,NE,6.9,-,N/A,,Clear,50,2013-06-27 06:15:00
1:35 AM,78.4,73.8,85,29.82,10.0,Calm,Calm,-,N/A,,Clear,0,2013-06-27 06:35:00
1:55 AM,77.9,73.4,86,29.84,10.0,ENE,6.9,-,N/A,,Clear,70,2013-06-27 06:55:00
2:15 AM,78.1,73.9,87,29.83,10.0,SE,5.8,-,N/A,,Clear,130,2013-06-27 07:15:00
2:35 AM,78.6,74.5,87,29.84,7.0,SSE,3.5,-,N/A,,Clear,160,2013-06-27 07:35:00
2:55 AM,79.0,74.8,87,29.84,7.0,SSE,4.6,-,N/A,,Clear,150,2013-06-27 07:55:00
3:15 AM,79.3,74.8,86,29.84,7.0,SSE,4.6,-,N/A,,Mostly Cloudy,150,2013-06-27 08:15:00
3:35 AM,79.3,74.7,86,29.84,10.0,South,4.6,-,N/A,,Mostly Cloudy,170,2013-06-27 08:35:00
3:55 AM,79.0,74.3,85,29.84,10.0,South,4.6,-,N/A,,Scattered Clouds,190,2013-06-27 08:55:00
4:15 AM,78.8,74.3,86,29.83,7.0,South,3.5,-,N/A,,Clear,190,2013-06-27 09:15:00
4:35 AM,78.3,73.9,87,29.83,7.0,SW,3.5,-,N/A,,Clear,220,2013-06-27 09:35:00
4:55 AM,78.1,73.9,87,29.83,7.0,Calm,Calm,-,N/A,,Clear,0,2013-06-27 09:55:00
5:15 AM,77.4,73.6,88,29.83,5.0,West,3.5,-,N/A,,Clear,270,2013-06-27 10:15:00
5:35 AM,77.9,74.5,89,29.83,5.0,Calm,Calm,-,N/A,,Clear,0,2013-06-27 10:35:00
5:55 AM,77.7,74.3,89,29.83,4.0,WSW,4.6,-,N/A,,Clear,240,2013-06-27 10:55:00
6:15 AM,78.4,75.2,90,29.84,7.0,West,3.5,-,N/A,,Clear,260,2013-06-27 11:15:00
6:35 AM,79.0,75.6,89,29.85,7.0,Calm,Calm,-,N/A,,Clear,0,2013-06-27 11:35:00
6:55 AM,80.1,75.9,87,29.85,10.0,WSW,3.5,-,N/A,,Clear,250,2013-06-27 11:55:00
7:15 AM,81.0,75.2,83,29.86,10.0,West,3.5,-,N/A,,Clear,270,2013-06-27 12:15:00
7:35 AM,82.4,73.6,75,29.86,10.0,WNW,3.5,-,N/A,,Clear,290,2013-06-27 12:35:00
7:55 AM,83.5,73.2,71,29.86,10.0,West,4.6,-,N/A,,Clear,280,2013-06-27 12:55:00
8:15 AM,84.7,72.7,67,29.87,10.0,NW,5.8,-,N/A,,Clear,310,2013-06-27 13:15:00
8:35 AM,85.3,71.6,63,29.87,10.0,WNW,6.9,-,N/A,,Clear,300,2013-06-27 13:35:00
8:55 AM,86.0,72.0,63,29.87,10.0,West,5.8,-,N/A,,Clear,280,2013-06-27 13:55:00
9:15 AM,86.7,72.0,61,29.87,10.0,WNW,5.8,-,N/A,,Clear,290,2013-06-27 14:15:00
9:35 AM,87.4,72.0,60,29.87,10.0,WNW,5.8,-,N/A,,Clear,290,2013-06-27 14:35:00
9:55 AM,88.2,72.0,59,29.87,10.0,West,6.9,-,N/A,,Clear,280,2013-06-27 14:55:00
10:15 AM,88.9,71.4,56,29.87,10.0,West,5.8,-,N/A,,Clear,270,2013-06-27 15:15:00
10:35 AM,89.6,71.2,55,29.87,10.0,WNW,9.2,-,N/A,,Clear,290,2013-06-27 15:35:00
10:55 AM,90.3,70.5,52,29.87,10.0,WNW,10.4,-,N/A,,Clear,290,2013-06-27 15:55:00
11:15 AM,91.8,71.2,51,29.87,10.0,West,9.2,-,N/A,,Clear,280,2013-06-27 16:15:00
11:35 AM,92.3,70.7,49,29.87,10.0,WNW,9.2,-,N/A,,Clear,290,2013-06-27 16:35:00
11:55 AM,93.4,69.6,46,29.87,10.0,WNW,11.5,-,N/A,,Clear,290,2013-06-27 16:55:00
12:15 PM,94.1,67.6,42,29.87,10.0,WNW,13.8,18.4,N/A,,Clear,290,2013-06-27 17:15:00
12:35 PM,94.8,67.8,41,29.87,10.0,WNW,11.5,17.3,N/A,,Clear,290,2013-06-27 17:35:00
12:55 PM,95.2,66.9,39,29.87,10.0,NNW,12.7,16.1,N/A,,Clear,330,2013-06-27 17:55:00
1:15 PM,95.9,68.2,40,29.87,10.0,NW,8.1,16.1,N/A,,Clear,310,2013-06-27 18:15:00
1:35 PM,95.9,65.5,37,29.88,10.0,WNW,11.5,-,N/A,,Clear,300,2013-06-27 18:35:00
1:55 PM,96.8,64.2,34,29.87,10.0,NNW,10.4,18.4,N/A,,Clear,330,2013-06-27 18:55:00
2:15 PM,96.8,64.0,34,29.87,10.0,NW,9.2,-,N/A,,Clear,310,2013-06-27 19:15:00
2:35 PM,97.3,65.7,35,29.87,10.0,WNW,9.2,-,N/A,,Clear,300,2013-06-27 19:35:00
2:55 PM,97.7,62.4,31,29.87,10.0,NNW,13.8,-,N/A,,Clear,330,2013-06-27 19:55:00
3:15 PM,97.7,62.4,31,29.87,10.0,NNW,11.5,-,N/A,,Clear,330,2013-06-27 20:15:00
3:35 PM,98.1,63.0,31,29.87,10.0,NNW,9.2,-,N/A,,Clear,340,2013-06-27 20:35:00
3:55 PM,98.1,62.4,31,29.87,10.0,NNW,10.4,-,N/A,,Clear,330,2013-06-27 20:55:00
4:15 PM,97.7,63.1,32,29.87,10.0,NNW,10.4,16.1,N/A,,Clear,330,2013-06-27 21:15:00
4:35 PM,97.2,64.8,34,29.87,10.0,North,5.8,-,N/A,,Clear,350,2013-06-27 21:35:00
4:55 PM,96.8,64.8,35,29.87,10.0,NNW,10.4,-,N/A,,Clear,340,2013-06-27 21:55:00
5:15 PM,96.1,63.5,34,29.86,10.0,NNW,8.1,-,N/A,,Clear,340,2013-06-27 22:15:00
5:35 PM,95.5,64.4,36,29.86,10.0,NNW,8.1,-,N/A,,Clear,340,2013-06-27 22:35:00
5:55 PM,94.8,64.8,37,29.85,10.0,NNW,9.2,-,N/A,,Clear,330,2013-06-27 22:55:00
6:15 PM,94.1,66.9,41,29.85,10.0,NNW,5.8,-,N/A,,Clear,330,2013-06-27 23:15:00
6:35 PM,93.2,67.1,42,29.84,10.0,NW,3.5,-,N/A,,Clear,310,2013-06-27 23:35:00
6:55 PM,93.6,68.9,44,29.84,10.0,West,4.6,-,N/A,,Clear,280,2013-06-27 23:55:00
7:15 PM,92.5,69.1,46,29.83,10.0,Calm,Calm,-,N/A,,Clear,0,2013-06-28 00:15:00
7:35 PM,90.9,69.4,49,29.82,10.0,West,3.5,-,N/A,,Clear,280,2013-06-28 00:35:00
7:55 PM,88.9,70.2,54,29.82,10.0,SW,3.5,-,N/A,,Clear,220,2013-06-28 00:55:00
8:15 PM,86.5,70.2,58,29.82,10.0,Calm,Calm,-,N/A,,Clear,0,2013-06-28 01:15:00
8:35 PM,84.2,71.6,66,29.81,10.0,Calm,Calm,-,N/A,,Clear,0,2013-06-28 01:35:00
8:55 PM,81.9,72.1,72,29.81,10.0,SW,4.6,-,N/A,,Clear,220,2013-06-28 01:55:00
9:15 PM,84.2,69.6,61,29.80,10.0,South,4.6,-,N/A,,Clear,190,2013-06-28 02:15:00
9:35 PM,83.5,69.1,62,29.80,10.0,SSW,4.6,-,N/A,,Clear,200,2013-06-28 02:35:00
9:55 PM,83.3,69.8,64,29.80,10.0,SSW,3.5,-,N/A,,Clear,200,2013-06-28 02:55:00
10:15 PM,84.2,69.8,62,29.82,10.0,WSW,4.6,-,N/A,,Clear,250,2013-06-28 03:15:00
10:35 PM,83.5,69.6,63,29.82,10.0,WNW,3.5,-,N/A,,Clear,290,2013-06-28 03:35:00
10:55 PM,79.9,70.3,73,29.83,10.0,West,5.8,-,N/A,,Clear,280,2013-06-28 03:55:00
11:15 PM,81.0,70.3,70,29.83,10.0,West,3.5,-,N/A,,Clear,280,2013-06-28 04:15:00
11:35 PM,81.0,70.7,71,29.83,10.0,West,4.6,-,N/A,,Clear,260,2013-06-28 04:35:00
11:55 PM,79.5,71.1,75,29.85,10.0,West,4.6,-,N/A,,Clear,270,2013-06-28 04:55:00